EHI
0 0 0 0 0 0 0 0 0 0 0 0 0 0 0 0 0 0 0 0 0 1 9 28 46 51 51 53 56 59 63 66 68 64 53 38 26 16 7 1 0 0 0 0 0 0 0 0 0
0 0 0 0 0 0 0 0 0 0 0 0 0 0 0 0 0 0 0 0 0 1 7 22 39 47 50 51 52 55 58 62 64 61 49 35 25 16 7 1 0 0 0 0 0 0 0 0 0
0 0 0 0 0 0 0 0 0 0 0 0 0 0 0 0 0 0 0 0 0 0 4 15 30 40 45 46 45 45 48 53 57 54 43 30 21 13 5 0 0 0 0 0 0 0 0 0 0
0 0 0 0 0 0 0 0 0 0 0 0 0 0 0 0 0 0 0 0 0 0 2 11 22 31 35 38 37 35 36 42 45 42 33 24 16 8 3 0 0 0 0 0 0 0 0 0 0
0 0 0 0 0 0 0 0 0 0 0 0 0 0 0 0 0 0 0 0 0 0 2 7 15 20 24 27 28 26 26 31 34 30 24 18 12 6 2 0 0 0 0 0 0 0 0 0 0
0 0 0 0 0 0 0 0 0 0 0 0 0 0 0 0 0 0 0 0 0 0 2 4 9 12 13 15 16 16 18 23 26 25 20 16 12 6 1 0 0 0 0 0 0 0 0 0 0
0 0 0 0 0 0 0 0 0 0 0 0 0 0 0 0 0 0 0 0 0 0 1 2 4 5 6 5 5 7 10 14 18 19 15 12 10 6 1 0 1 1 1 0 0 0 0 0 0
0 0 0 0 0 0 0 0 0 0 0 0 0 0 0 0 0 0 0 0 0 0 0 1 1 1 1 1 1 2 3 6 9 9 7 5 4 3 1 0 1 1 1 0 0 0 0 0 0
0 0 0 0 0 0 0 0 0 0 0 0 0 0 0 0 0 0 0 0 0 0 0 0 0 0 0 0 0 0 0 1 2 2 1 0 0 0 0 0 0 0 0 0 0 0 0 0 0
0 0 0 0 0 0 0 0 0 0 0 0 0 0 0 0 0 0 0 0 0 0 0 0 0 0 0 0 0 0 0 0 0 0 0 0 0 0 0 0 0 0 0 0 0 0 0 0 0
0 0 0 0 0 0 0 0 0 0 0 0 0 0 0 0 0 0 0 0 0 0 0 0 0 0 0 0 0 0 0 0 0 0 0 0 0 0 0 0 0 0 0 0 0 0 0 0 0
0 0 0 0 0 0 0 0 0 0 0 0 0 0 0 0 0 0 0 0 0 0 0 0 0 0 0 0 0 0 0 0 0 0 0 0 0 0 0 0 0 0 0 0 0 0 0 0 0
0 0 0 0 0 0 0 0 0 0 0 0 0 0 0 0 0 0 0 0 0 0 0 0 0 0 0 0 0 0 0 0 0 0 0 0 0 0 0 0 0 0 0 0 0 0 0 0 0
0 0 0 0 0 0 0 0 0 0 0 0 0 0 0 0 0 0 0 0 0 0 0 0 0 0 0 0 0 0 0 0 0 0 0 0 0 0 0 0 0 0 0 0 0 0 0 0 0
0 0 0 0 0 0 0 0 0 0 0 0 0 0 0 0 0 0 0 0 0 0 0 0 0 0 0 0 0 0 0 0 0 0 0 0 0 0 0 0 0 0 0 0 0 0 0 0 0
0 0 0 0 0 0 0 0 0 0 0 0 0 0 0 0 0 0 0 0 0 0 0 0 0 0 0 0 0 0 0 0 0 0 0 0 0 0 0 0 0 0 0 0 0 0 0 0 0
0 0 0 0 0 0 0 0 0 0 0 0 0 0 0 0 0 0 0 0 0 0 0 0 0 0 0 0 0 0 0 0 0 0 0 0 0 0 0 0 0 0 0 0 0 0 0 0 0
0 0 0 0 0 0 0 0 0 0 0 0 0 0 0 0 0 0 0 0 0 0 0 0 0 0 0 0 0 0 0 0 0 0 0 0 0 0 0 0 0 0 0 0 0 0 0 0 0
0 0 0 0 0 0 0 0 0 0 0 0 0 0 0 0 0 0 0 0 0 0 0 0 0 0 0 0 0 0 0 0 0 0 0 0 0 0 0 0 0 0 0 0 0 0 0 0 0
0 0 0 0 0 0 0 0 0 0 0 0 0 0 0 0 0 0 0 0 0 0 0 0 0 0 0 0 0 0 0 0 0 0 0 0 0 0 0 0 0 0 0 0 0 0 0 0 0
0 0 0 0 0 0 0 0 0 0 0 0 0 0 0 0 0 0 0 0 0 0 0 0 0 0 0 0 0 0 0 0 0 0 0 0 0 0 0 0 0 0 0 0 0 0 0 0 0
0 0 0 0 0 0 0 0 0 0 0 0 0 0 0 0 0 0 0 0 0 0 0 0 0 0 0 0 0 0 0 0 0 0 0 0 0 0 0 0 0 0 0 0 0 0 0 0 0
0 0 0 0 0 0 0 0 0 0 0 0 0 0 0 0 0 0 0 0 0 0 0 0 0 0 0 0 0 0 0 0 0 0 0 0 0 0 0 0 0 0 0 0 0 0 0 0 0
0 0 0 0 0 0 0 0 0 0 0 0 0 0 0 0 0 0 0 0 0 0 0 0 0 0 0 0 0 0 0 0 0 0 0 0 0 0 0 0 0 0 0 0 0 0 0 0 0
0 0 0 0 0 0 0 0 0 0 0 0 0 0 0 0 0 0 0 0 0 0 0 0 0 0 0 0 0 0 0 0 0 0 0 0 0 0 0 0 0 0 0 0 0 0 0 0 0
0 0 0 0 0 0 0 0 0 0 0 0 0 0 0 0 0 0 0 0 0 0 0 0 0 0 0 0 0 0 0 0 0 0 0 0 0 0 0 0 0 0 0 0 0 0 0 0 0
0 0 0 0 0 0 0 0 0 0 0 0 0 0 0 0 0 0 0 0 0 0 0 0 0 0 0 0 0 0 0 0 0 0 0 0 0 0 0 0 0 0 0 0 0 0 0 0 0
0 0 0 0 0 0 0 0 0 0 0 0 0 0 0 0 0 0 0 0 0 0 0 0 0 0 0 0 0 0 0 0 0 0 0 0 0 0 0 0 0 0 0 0 0 0 0 0 0
0 0 0 0 0 0 0 0 0 0 0 0 0 0 0 0 0 0 0 0 0 0 0 0 0 0 0 0 0 0 0 0 0 0 0 0 0 0 0 0 0 0 0 0 0 0 0 0 0
0 0 0 0 0 0 0 0 0 0 0 0 0 0 0 0 0 0 0 0 0 0 0 0 0 0 0 0 0 0 0 0 0 0 0 0 0 0 0 0 0 0 0 0 0 0 0 0 0
Wind_Speed
5 3 3 5 7 4 3 5 3 3 3 2 1 3 4 4 4 4 3 1 1 4 7 10 14 15 15 14 14 14 14 13 14 15 15 15 16 16 16 16 16 15 16 16 16 16 17 17 16
2 2 5 5 5 2 6 5 5 5 3 5 4 2 2 4 3 5 4 2 1 5 7 8 13 14 15 14 14 14 14 14 14 14 15 15 15 15 15 15 15 16 16 16 16 16 16 16 15
2 4 5 5 4 7 6 3 4 4 5 3 3 2 1 3 6 5 5 4 2 5 6 7 13 14 14 14 14 14 14 14 13 13 14 15 15 15 15 15 15 15 15 15 16 16 16 15 14
3 5 5 3 5 5 4 1 1 4 5 2 2 4 4 2 5 6 7 2 3 4 5 6 12 13 14 14 14 15 15 14 13 13 13 14 15 15 15 14 13 14 14 16 16 16 15 14 14
4 5 4 1 4 4 4 3 2 2 3 3 2 3 4 3 6 7 6 3 1 2 3 5 11 13 13 13 14 14 14 14 14 13 14 15 15 15 15 14 14 14 15 16 16 15 15 14 13
5 5 4 4 4 4 4 3 2 2 2 3 2 2 3 3 8 9 7 4 1 1 2 3 10 11 11 12 13 14 14 14 14 13 14 14 14 14 15 15 15 16 16 16 16 15 14 13 12
5 4 4 3 2 3 3 2 1 2 3 3 2 2 4 5 7 8 6 4 3 1 1 2 4 7 10 11 11 12 12 13 13 12 12 12 12 13 14 15 16 16 16 15 15 14 14 13 12
4 5 2 3 3 4 2 2 1 1 4 4 1 2 3 5 8 7 6 4 3 2 1 1 2 3 4 6 9 10 11 11 11 11 11 10 11 12 14 14 15 15 15 15 14 14 13 12 11
4 4 3 5 5 3 2 3 4 3 3 3 2 2 3 6 7 7 6 5 4 3 2 2 2 2 3 4 6 7 8 9 9 8 9 8 6 8 9 11 13 14 14 14 14 13 12 9 9
4 3 5 4 3 2 2 2 4 4 4 4 4 5 5 5 6 6 6 6 5 5 4 3 3 3 3 3 3 3 4 4 5 4 6 5 5 5 8 11 13 13 13 13 13 12 10 7 4
3 4 3 3 3 2 3 4 3 3 6 6 7 8 6 6 6 6 6 6 6 5 5 4 4 3 4 3 3 2 2 3 4 5 6 5 5 4 5 5 7 8 9 6 8 7 4 4 3
2 2 3 2 2 2 3 3 4 7 9 7 8 8 8 8 8 8 8 8 6 6 7 5 4 4 4 4 4 4 3 3 3 5 7 6 5 5 5 5 5 5 4 5 4 4 4 4 4
1 2 2 4 5 6 6 7 6 10 11 10 9 9 9 10 10 9 8 8 7 7 7 6 4 5 4 4 4 4 4 4 4 4 6 7 6 6 6 5 5 5 4 5 5 5 5 4 4
1 2 4 5 6 4 6 8 5 10 7 8 8 9 10 10 11 9 8 8 8 8 7 5 5 5 5 5 5 4 4 4 4 5 6 8 6 7 7 7 6 6 5 5 5 5 5 4 3
1 3 5 3 3 3 3 7 6 8 6 8 9 10 10 10 10 10 10 9 9 8 7 6 6 5 6 6 6 4 4 4 4 5 6 8 7 8 7 7 7 6 6 6 4 4 3 3 3
2 2 4 4 2 2 1 9 6 5 6 9 10 10 10 10 10 10 9 9 9 8 7 7 6 6 7 6 6 4 4 5 5 5 5 8 8 8 7 7 7 7 6 6 6 5 4 4 3
3 2 3 6 3 2 1 9 9 7 7 9 10 9 10 10 10 8 7 8 8 8 7 7 7 7 7 6 5 4 4 5 4 4 5 7 8 9 8 6 6 7 7 6 7 5 4 4 4
1 2 3 5 4 3 6 11 13 9 7 8 9 9 9 9 11 8 7 6 6 6 6 6 6 6 6 5 3 3 3 4 4 4 5 8 8 9 8 6 7 8 7 7 6 6 5 4 4
1 2 6 7 5 4 7 11 12 10 7 8 8 8 9 10 9 7 6 5 4 3 4 4 4 5 4 3 3 4 4 4 4 5 6 8 8 9 9 7 8 8 8 8 9 6 6 4 4
2 4 5 6 4 4 6 10 9 6 5 6 7 8 9 10 9 7 6 4 3 3 3 4 4 4 4 4 3 3 3 3 3 3 5 8 8 9 9 9 8 9 8 9 9 7 5 4 5
4 4 4 6 7 4 5 7 5 5 4 6 7 7 8 9 10 9 7 6 4 3 3 3 3 4 4 4 2 1 1 1 2 3 4 6 7 8 8 9 8 9 9 9 10 10 9 6 6
4 4 5 5 5 4 3 5 6 7 8 9 10 9 10 10 9 8 8 7 5 4 3 2 3 2 3 3 3 4 3 3 3 2 3 4 6 7 8 8 9 9 8 8 9 10 8 8 7
5 3 3 4 3 3 2 2 7 6 8 11 11 11 10 10 9 9 8 7 6 5 4 3 1 1 1 2 3 4 3 2 1 1 2 3 3 5 6 7 7 8 8 9 9 9 9 8 8
3 2 1 0 1 2 2 1 5 5 9 12 12 12 12 11 10 10 9 9 8 6 5 5 3 3 2 1 1 2 3 2 2 2 2 2 2 3 4 5 6 7 7 9 9 10 10 9 9
1 2 3 4 3 3 2 1 4 5 7 8 10 11 11 11 11 11 12 12 11 10 8 6 5 5 4 2 1 0 1 1 2 2 2 2 2 2 4 4 5 5 6 7 7 9 9 10 10
0 2 2 1 3 4 2 2 4 3 4 6 7 9 10 12 11 12 12 11 11 11 10 8 8 7 6 4 3 2 1 1 0 1 1 1 2 2 3 3 4 5 5 6 6 7 8 8 9
1 1 1 2 1 2 3 4 3 3 5 7 8 9 10 11 11 11 11 11 11 11 11 9 9 8 8 7 6 5 4 3 2 2 1 1 1 2 2 3 4 4 5 5 6 6 7 7 8
1 2 2 1 0 2 4 3 3 6 7 7 8 9 9 9 10 10 10 10 10 10 9 9 9 8 8 8 7 6 6 5 4 3 3 2 2 2 2 2 3 4 4 4 5 5 5 6 7
0 1 1 1 1 1 2 3 1 3 3 4 5 6 7 8 8 9 9 9 9 9 9 9 10 10 9 8 8 7 7 6 5 4 4 4 3 3 2 3 3 3 3 4 4 5 5 6 6
2 2 2 1 1 1 1 4 2 1 1 2 3 4 5 6 7 7 8 9 9 9 9 9 9 9 9 8 8 7 7 7 7 6 6 5 5 4 3 3 2 2 3 3 4 5 5 7 7
Wind_Direction
6 18 59 59 61 62 227 237 227 239 232 249 249 237 222 220 205 242 303 168 171 157 167 170 166 166 166 165 162 159 156 155 154 153 152 152 151 150 150 149 147 144 141 136 133 129 125 122 119
2 40 57 66 100 166 247 236 228 228 263 309 302 264 247 261 273 298 328 303 204 164 165 170 169 169 169 168 167 165 164 162 160 160 158 157 156 154 154 153 151 147 144 140 135 131 129 126 124
45 51 84 92 149 192 222 223 231 284 299 314 320 326 278 288 321 314 309 293 189 168 167 172 171 172 172 172 172 171 170 170 168 166 164 163 162 159 158 156 152 148 144 141 137 135 133 131 129
73 52 60 102 206 222 222 235 280 323 328 339 346 317 303 330 324 309 319 328 158 171 170 178 176 176 176 176 176 177 176 177 176 174 171 170 169 166 162 158 152 147 145 143 141 140 139 137 134
60 81 92 189 231 245 249 258 257 302 301 313 339 296 293 332 332 334 345 2 148 178 178 186 183 182 181 181 181 181 182 182 181 180 178 177 176 172 166 160 154 152 150 148 147 147 146 142 139
63 75 121 217 241 267 269 265 290 283 280 301 313 281 266 329 356 343 348 359 359 200 197 196 194 189 187 188 188 187 187 188 186 185 183 182 181 175 170 164 159 158 156 155 153 153 151 147 142
105 110 166 199 234 258 258 274 238 273 285 278 265 260 287 331 341 337 346 360 358 333 222 211 201 198 195 195 193 191 192 193 190 189 190 187 181 175 172 167 165 163 162 160 159 158 156 151 145
116 109 146 206 210 244 294 341 329 263 269 285 251 227 283 307 326 341 351 2 354 341 301 241 217 204 200 199 198 196 196 196 192 192 192 186 182 176 172 169 169 167 166 164 164 164 162 155 148
86 94 197 209 202 238 332 346 321 301 281 302 282 245 268 308 335 351 351 347 338 319 305 272 233 214 204 199 204 198 197 197 195 192 188 181 178 173 170 169 170 169 168 168 168 168 164 153 148
96 164 217 210 204 242 302 295 300 317 308 294 287 285 300 314 333 336 327 318 314 303 296 279 245 222 206 204 195 194 194 193 192 182 178 173 166 168 165 170 170 170 170 170 172 170 163 143 139
135 190 221 247 251 266 286 285 266 257 267 248 262 284 297 299 302 298 291 285 278 278 279 277 255 227 203 193 186 191 190 186 185 181 176 166 159 159 159 163 168 169 167 167 172 168 154 147 148
148 224 224 259 279 277 267 274 270 233 243 253 263 274 281 280 277 272 270 272 273 273 268 265 255 233 215 199 193 188 190 192 194 186 177 169 168 167 165 169 165 166 166 165 166 162 157 158 163
186 273 272 271 281 265 261 254 261 258 261 270 274 274 271 271 268 264 259 262 263 260 260 257 250 232 219 207 203 195 193 195 197 191 186 178 176 176 173 172 170 169 166 170 171 169 168 169 173
242 285 291 282 275 272 262 268 254 266 273 280 279 275 271 267 264 264 264 261 256 250 249 248 245 233 220 212 211 204 197 197 190 190 193 188 182 178 177 177 177 176 174 174 176 176 175 178 177
357 326 318 298 278 280 292 289 241 267 290 287 285 282 280 271 264 256 254 255 252 248 242 235 237 230 225 218 214 209 198 197 198 196 193 193 190 185 181 183 183 181 172 168 168 170 164 178 187
30 12 324 313 316 298 326 281 281 296 302 293 290 288 284 277 266 257 253 252 252 248 241 234 235 224 222 222 215 208 201 200 201 200 194 196 194 188 183 187 188 178 173 174 176 177 179 188 192
32 355 300 305 312 313 265 276 294 313 304 295 298 297 294 292 288 275 261 254 251 245 240 235 228 223 220 220 219 212 207 208 204 200 197 196 196 190 187 189 186 176 178 182 185 181 178 185 191
291 308 300 295 302 313 288 280 296 308 303 297 300 302 302 298 291 287 279 267 258 250 241 234 228 220 215 212 206 204 211 215 207 204 203 197 196 193 190 188 186 180 182 186 188 182 179 176 171
208 279 289 280 283 296 285 290 300 310 317 311 310 312 312 304 295 297 292 284 273 260 246 234 230 226 207 200 196 198 208 211 210 206 205 202 198 195 193 194 186 185 190 191 187 179 179 178 149
255 285 287 293 299 290 295 295 298 310 313 312 318 321 321 320 322 322 320 311 283 267 253 242 235 227 213 209 198 193 188 202 210 210 207 203 200 198 198 194 192 190 191 189 187 179 177 178 172
253 241 262 287 312 304 313 312 327 332 342 345 345 332 331 331 329 329 332 328 318 299 271 257 243 229 217 205 186 179 164 165 198 205 212 208 202 198 199 197 195 192 193 196 193 189 186 185 190
269 239 244 280 314 319 360 315 314 336 340 353 351 346 342 340 339 340 341 339 335 316 305 276 250 235 220 194 188 185 189 202 213 203 220 215 206 201 197 200 201 199 200 200 198 197 195 184 190
240 279 258 267 267 299 318 272 299 339 341 346 349 350 349 348 352 355 353 348 349 347 341 338 325 308 250 200 199 200 208 218 208 188 204 219 220 211 203 198 201 204 205 205 200 198 199 196 196
251 314 301 2 59 305 282 232 302 336 335 336 346 351 353 356 360 3 5 6 6 4 5 9 12 8 14 30 202 196 207 209 197 206 214 221 221 219 215 208 203 207 209 207 204 201 201 203 204
65 54 23 7 4 273 287 229 274 317 336 338 344 352 357 0 4 7 8 11 13 11 10 10 19 19 17 21 4 306 212 195 210 226 228 229 228 222 221 216 211 213 215 212 207 206 208 207 208
218 135 134 234 274 294 322 275 279 325 349 359 2 4 7 9 9 9 8 10 12 11 12 18 25 21 18 21 21 22 28 60 344 296 266 251 254 246 228 221 221 219 215 214 210 209 211 210 212
154 181 181 159 253 286 297 302 308 360 9 11 9 12 11 8 8 10 9 12 11 10 12 17 25 26 21 17 19 22 20 23 12 355 349 321 291 281 249 227 227 222 216 215 209 215 213 213 214
192 164 106 132 306 305 314 312 317 336 350 359 3 6 5 6 6 5 7 9 11 11 12 19 24 23 22 21 23 23 16 9 3 6 356 335 322 307 278 252 236 224 217 221 218 217 214 217 217
182 127 146 178 183 187 316 297 310 327 346 350 352 360 360 3 2 1 2 3 8 13 16 19 19 21 21 21 23 22 14 9 11 11 0 350 339 327 303 280 259 246 235 231 230 231 220 221 222
197 207 172 175 264 188 220 277 346 12 350 357 351 356 360 4 1 2 2 4 9 14 16 17 16 18 17 17 20 19 14 13 14 7 0 357 351 345 330 310 291 267 259 246 236 235 228 224 223